Regional Weather Roundup
Issued by NWS

Home | Current Version | Previous Version | Graphics & Text | Print | Product List | Glossary On
Versions: 1 2 3 4 5 6 7 8 9 10 11 12 13 14 15 16 17 18 19 20 21 22 23 24 25 26 27 28 29 30 31 32 33 34 35 36 37 38 39 40 41 42 43 44 45 46 47 48 49 50
000
ASUS43 KLOT 252306
RWRIL

ILLINOIS REGIONAL WEATHER ROUNDUP
NATIONAL WEATHER SERVICE CHICAGO/ROMEOVILLE IL
500 PM CST SUN JAN 25 2015

NOTE: "FAIR" INDICATES FEW OR NO CLOUDS BELOW 12,000 FEET WITH NO
SIGNIFICANT WEATHER AND/OR OBSTRUCTIONS TO VISIBILITY.

* THESE STATIONS ARE NOT UNDER NWS QUALITY CONTROL. THEY ALSO MAY NOT
  REPORT WEATHER SUCH AS PRECIPITATION OR FOG.

ILZ001-002-007-009-015-016-024-260000-
NORTHWEST ILLINOIS

CITY           SKY/WX    TMP DP  RH WIND       PRES   REMARKS
MOLINE         CLOUDY    28  18  66 NE12      29.96R WCI  18
STERLING*      CLOUDY    27  16  63 NE12G18   29.96R WCI  16
SAVANNA*       CLEAR     27  17  65 N12       29.98R WCI  17
$$

ILZ003-004-008-010-011-017-018-260000-
NORTH CENTRAL ILLINOIS

CITY           SKY/WX    TMP DP  RH WIND       PRES   REMARKS
ROCKFORD       MOCLDY    26  13  57 NE16      29.98R WCI  14
FREEPORT*      CLEAR     25  13  60 N12G20    29.99R WCI  14
ROCHELLE*      CLOUDY    25  16  68 NE20G28   29.95R WCI  11
DE KALB*       CLOUDY    24  17  75 N18G26    29.94R WCI  10
PERU*          CLOUDY    28  22  78 NE17      29.92R WCI  16
$$

ILZ005-006-012>014-019>023-260000-
NORTHEAST ILLINOIS

CITY           SKY/WX    TMP DP  RH WIND       PRES   REMARKS
CHICAGO-OHARE  CLOUDY    27  17  66 NE16G25   29.92R WCI  15
CHICAGO-MIDWAY CLOUDY    29  20  69 NE22      29.91R WCI  15
AURORA         CLOUDY    28  18  66 NE16      29.91R WCI  16
LANSING*       LGT SNOW  27  24  89 NE17G25   29.89R WCI  14
JOLIET*        CLOUDY    28  21  76 N18G28    29.90R WCI  15
WAUKEGAN       PTCLDY    24  15  68 N13G22    29.95R WCI  12
DUPAGE AIRPORT CLOUDY    26  18  71 NE21G28   29.91R WCI  12
KANKAKEE*      MIX PCPN  29  27  90 N21G28    29.85R WCI  16
WHEELING       CLOUDY    26  17  68 N14G25    29.95R WCI  14
MORRIS*        CLOUDY    28  24  82 NE9G23    29.89R WCI  20
ROMEOVILLE*    CLOUDY    28  21  77 NE17G31   29.90R WCI  15
NORTHERLY ISL    N/A     27  20  75 N23         N/A  WCI  13
$$

LMZ740>746-260000-
SOUTHERN LAKE MICHIGAN

STATION/POSITION SKY/WX   TEMP    WIND        PRES    VSBY  WAVE
                          AIR SEA DIR/SP/G                  HT/PER
                          (F)     (DEG/KT/KT) (MB)    (MI)  (FT/S)
WAUKEGAN HARBOR            26      30/ 24/ 31   N/A
HARRISON CRIB              27      30/ 24/ 27   N/A
BURNHAM HARBOR             27      30/ 19/ 23   N/A
CALUMET HARBOR             27                   N/A
MICHIGAN CITY              25      20/ 21/ 24   N/A
$$

ILZ025>027-034>036-040-047-049-050-058-095>099-260000-
WEST-CENTRAL ILLINOIS

CITY           SKY/WX    TMP DP  RH WIND       PRES   REMARKS
QUINCY         CLOUDY    31  26  82 N26G32    29.90R WCI  17
GALESBURG*     CLOUDY    28  23  81 N21G26    29.93R WCI  15
MACOMB*        CLOUDY    30  26  84 N23       29.93R WCI  17
JACKSONVILLE*  MIX PCPN  34  31  89 N23       29.84R WCI  22
PITTSFIELD*    CLOUDY    33  30  90 N16G26    29.87R WCI  22
$$

ILZ028>032-037-038-041>044-048-051>054-059>061-260000-
CENTRAL ILLINOIS

CITY           SKY/WX    TMP DP  RH WIND       PRES   REMARKS
PONTIAC        LGT SNOW  31  29  92 N24G32    29.86R WCI  17
BLOOMINGTON    FLURRIES  31  30  96 NE25G32   29.82R WCI  17
DECATUR        CLOUDY    34  34 100 NE23G29   29.76R WCI  22
PEORIA         CLOUDY    30  24  78 N10G28    29.89R WCI  21
LACON*         CLOUDY    28  21  74 N12G21    29.90R WCI  18
LINCOLN*       CLOUDY    33  31  90 N20G31    29.83R WCI  22
SPRINGFIELD    LGT RAIN  34  30  85 N20G28    29.82R WCI  23
TAYLORVILLE    CLOUDY    34  32  93 N21       29.77R FOG     WCI  22
$$

ILZ033-039-045-046-055>057-062-063-260000-
EAST-CENTRAL ILLINOIS

CITY           SKY/WX    TMP DP  RH WIND       PRES   REMARKS
CHAMPAIGN      CLOUDY    33  30  88 NE20G33   29.75R WCI  21
DANVILLE*      RAIN      31  29  94 NE16      29.73R WCI  19
RANTOUL*       CLOUDY    34  32  92 NE18      29.77R WCI  23
MATTOON        MIX PCPN  35  33  92 N18G25    29.70R FOG     WCI  24
PARIS*         LGT RAIN  34  34  98 NE17      29.72R WCI  24
$$

ILZ079-100>102-260000-
SOUTHWEST ILLINOIS

CITY           SKY/WX    TMP DP  RH WIND       PRES   REMARKS
ALTON          CLOUDY    37  36  93 N10G21    29.76R WCI  30
BELLEVILLE     CLOUDY    38  38  99 N20G25    29.73R WCI  29
CAHOKIA*       LGT RAIN  39  36  89 N22       29.76R WCI  29
SPARTA*        LGT RAIN  42  40  95 N14G21    29.71R
$$

ILZ064>066-069>071-074>076-080>082-084>086-088>090-092>094-260000-
SOUTH-CENTRAL ILLINOIS

CITY           SKY/WX    TMP DP  RH WIND       PRES   REMARKS
CARBONDALE     LGT RAIN  44  42  93 NW12      29.67R FOG
CAIRO*         DRIZZLE   46  46 100 CALM      29.69R
EFFINGHAM*     CLOUDY    38  35  89 N15       29.71R FOG     WCI  29
MARION         RAIN      45  45 100 W12       29.66R
MT. VERNON     CLOUDY    43  37  81 N7        29.67R
CENTRALIA*     CLOUDY    39  37  90 N17G26    29.69R FOG     WCI  30
SALEM*         CLOUDY    41  39  91 N17       29.69R FOG
METROPOLIS*    LGT RAIN  44  44 100 W10       29.66R
$$

ILZ067-068-072-073-078-083-087-091-260000-
SOUTHEAST ILLINOIS

CITY           SKY/WX    TMP DP  RH WIND       PRES   REMARKS
LAWRENCEVILLE  LGT RAIN  40  40 100 N5        29.65R VSB 1
FLORA*         DRIZZLE   39  39 100 N12       29.67R WCI  32
FAIRFIELD*     DRIZZLE   42  41  99 NW6       29.65R
HARRISBURG*    DRIZZLE   43  43 100 NW5       29.65R
ROBINSON*      DRIZZLE   39  38  99 N8        29.67R WCI  33
CARMI*         RAIN      43  43 100 NW5       29.64R
$$

ABBREVIATIONS USED IN REMARKS
   TC - TEMPERATURE IN CELSIUS
  WCI - WIND CHILL INDEX
   HX - HEAT INDEX
  VSB - VISIBILITY
$$




USA.gov is the U.S. government's official web portal to all federal, state and local government web resources and services.